Location: Ergnies
(50.0854°N, 2.0375°E)
Time: 08:21:03
(UTC+00:00)

Cosmos 2082 Rocket - Pass Details

Date: 14 January 2026
Orbit: 831 x 853 km, 71.0° (Epoch: 17 February)

Event Time Altitude Azimuth Distance (km) Brightness Sun altitude
Exits shadow 06:50:41 - 323° (NW) 2,788 4.4 -8.6°
Reaches altitude 10° 06:51:34 10° 320° (NW) 2,471 4.1 -8.5°
Maximum altitude 06:56:52 42° 251° (WSW) 1,188 2.7 -7.7°
Drops below altitude 10° 07:02:10 10° 182° (S) 2,469 5.0 -6.9°
Sets 07:04:43 0° 176° (S) 3,403 5.8 -6.5°
